Theta_e
356 358 359 359 360 355 352 351 354 354 356 357 355 356 356 356 366 365 366 362 351 362 359 359 350 354 354 351 349 361 348 348 355 355 353 355 357 358 360 359 358 358 357 358 358 356 357 357 357 357 357 358 359 359 359 360 361 362 362 363 364 365 366 367 367 367 367 367 368 368 369 369 369 369 369 369 368 368 368 368 368 367 368 368 367
356 357 356 358 359 354 351 349 348 354 352 355 354 359 360 362 363 362 360 359 356 353 354 349 345 345 347 344 346 346 358 353 356 353 355 352 355 358 361 361 359 359 358 357 358 359 358 359 359 359 360 360 361 361 361 362 362 363 364 364 366 366 367 367 368 368 368 369 369 370 370 370 370 370 370 369 369 368 368 368 368 368 366 366 366
355 358 357 357 358 354 349 350 353 357 363 355 363 365 362 361 354 361 360 360 354 356 354 356 351 343 346 342 343 344 346 348 344 343 352 358 355 355 358 360 362 359 360 359 358 360 361 361 361 361 361 362 362 362 363 363 363 365 365 366 367 367 367 368 369 369 370 370 371 371 371 370 369 369 369 369 369 369 368 368 367 366 367 366 366
355 355 355 355 351 351 359 356 356 366 367 364 366 363 364 359 363 365 372 369 370 361 354 353 349 343 348 341 343 343 344 347 338 340 350 359 357 355 357 359 361 362 360 361 360 360 361 362 362 363 363 363 363 363 364 365 365 365 366 367 367 368 368 369 370 371 371 371 372 372 371 369 369 369 369 368 368 368 367 366 366 366 365 365 365
359 355 362 360 359 361 361 369 364 367 365 361 363 369 360 364 368 364 366 362 356 356 349 356 341 344 347 341 342 340 345 340 353 343 344 352 357 357 357 359 359 362 362 362 361 362 363 362 363 363 363 364 364 364 365 366 366 366 366 367 368 369 370 370 370 371 371 371 372 372 371 370 369 368 367 368 368 368 367 366 365 365 365 365 365
364 365 360 357 359 360 363 362 366 365 373 368 368 367 367 364 365 361 358 365 359 360 354 346 343 351 349 342 342 349 344 341 342 340 341 343 346 354 360 361 360 360 360 364 364 365 364 364 364 364 364 364 365 365 364 365 367 368 367 367 368 368 369 370 370 370 371 372 373 372 371 369 367 367 369 369 368 367 366 365 365 365 365 365 365
361 358 359 353 350 355 364 366 366 362 372 372 370 365 366 361 366 356 358 357 350 360 353 358 340 360 353 352 339 340 343 337 352 338 341 343 344 347 351 357 366 366 366 363 365 366 366 366 366 366 365 366 366 367 368 368 368 368 369 368 368 368 370 370 370 371 372 373 372 372 369 368 368 369 369 369 367 366 365 365 365 365 365 365 364
357 358 355 354 352 350 353 357 361 373 369 374 372 368 364 360 355 353 352 343 348 346 349 359 346 346 348 352 353 353 348 352 353 339 338 342 346 349 346 351 353 363 366 365 366 365 368 367 367 367 367 367 367 367 368 368 368 368 368 367 368 369 369 369 371 372 373 372 372 371 367 367 368 368 369 367 367 366 365 364 364 365 365 364 364
360 356 355 355 355 353 356 350 357 369 364 361 359 357 355 349 353 361 358 363 345 340 345 356 347 355 348 344 350 360 348 355 346 350 342 344 343 340 348 347 362 358 361 357 361 368 369 369 368 368 368 368 368 368 368 368 368 368 367 368 369 368 369 371 372 373 373 372 372 368 367 367 369 368 368 367 367 365 365 364 364 364 364 363 363
361 360 359 360 354 351 352 359 362 362 365 363 361 357 356 355 349 358 360 367 359 354 348 343 336 336 340 338 356 351 348 358 358 354 353 356 356 353 343 346 354 346 349 350 353 359 367 370 370 368 368 369 368 367 367 367 367 367 366 367 368 370 371 369 371 371 373 371 372 367 367 368 368 367 366 367 366 365 364 364 363 363 363 363 363
359 357 359 353 355 355 356 359 362 363 360 358 359 361 357 355 352 367 368 366 364 350 341 353 341 341 339 347 348 359 357 353 357 350 353 342 341 351 340 352 345 347 352 359 357 356 360 368 365 364 362 369 370 369 369 368 367 367 368 368 368 369 370 372 371 371 373 370 372 365 367 367 367 366 366 366 366 365 364 363 363 363 361 362 361
357 352 355 356 355 358 357 358 360 359 357 356 358 358 356 356 354 353 360 358 361 353 354 347 359 345 351 344 348 351 358 354 352 352 356 348 356 354 346 344 351 353 348 353 352 347 354 363 368 364 363 367 373 372 372 370 369 369 369 368 369 369 369 369 370 372 373 372 370 365 367 367 367 367 366 365 365 365 363 362 362 362 360 361 360
359 355 353 356 354 356 356 362 360 362 361 358 357 361 359 358 359 371 358 358 352 349 349 350 355 361 364 354 347 350 350 362 345 342 344 348 348 349 348 359 355 351 357 350 356 349 354 356 361 363 358 362 372 376 374 373 372 372 371 370 370 371 370 370 370 371 372 372 370 364 367 367 367 365 365 365 365 364 362 361 361 360 360 359 360
360 358 355 355 353 356 356 359 360 362 366 364 363 366 361 359 365 369 357 350 360 343 340 351 354 342 346 345 350 346 350 343 339 339 350 340 345 355 357 349 345 348 355 368 358 347 346 351 356 358 363 368 363 367 370 368 371 373 373 372 370 370 369 369 371 370 372 371 369 366 368 367 365 366 365 365 364 363 361 360 360 359 360 358 358
360 359 355 354 356 356 358 361 363 368 367 367 366 361 362 356 358 363 354 350 360 348 356 361 353 348 351 354 347 348 356 352 343 342 341 344 345 342 348 342 343 346 355 357 362 357 347 354 357 364 365 370 366 364 366 370 369 375 376 374 372 371 368 370 370 370 371 373 368 368 367 367 367 365 365 364 363 360 360 361 360 360 359 359 357
355 356 355 355 354 356 357 362 370 372 372 370 367 360 358 357 357 364 365 353 347 347 353 364 359 358 345 349 346 347 344 345 347 345 342 344 342 349 343 346 345 348 352 350 346 349 357 363 358 364 368 373 370 372 373 369 369 377 379 373 370 370 369 368 371 370 372 372 368 366 366 368 365 365 365 364 362 360 361 360 359 358 358 358 356
357 352 351 351 355 356 365 366 366 370 366 366 367 355 357 358 361 369 364 358 354 354 351 354 355 361 357 354 348 345 341 346 335 344 343 339 341 342 347 341 344 357 350 348 348 348 348 358 368 365 366 365 365 371 371 365 371 381 378 371 372 372 371 371 371 369 372 373 368 367 367 366 366 364 364 363 360 360 361 360 359 358 357 357 355
356 353 354 355 355 360 367 364 364 370 366 360 361 361 362 362 362 363 361 364 363 356 348 359 351 358 358 361 361 347 348 347 343 345 362 346 341 341 345 344 348 351 351 353 346 348 351 360 364 366 368 363 371 370 364 367 372 377 376 370 373 371 370 371 368 369 372 373 368 368 368 365 363 366 364 362 359 359 360 359 358 357 356 356 356
353 350 351 355 356 364 368 365 364 367 370 367 363 356 355 360 364 365 361 370 362 360 353 353 363 354 344 346 347 355 345 355 346 347 337 351 349 343 342 343 347 351 348 346 347 350 355 359 353 360 364 364 362 364 361 358 363 367 370 371 371 369 370 367 367 369 372 373 369 369 368 365 365 364 364 360 358 358 359 358 358 357 356 355 354
357 360 355 357 361 362 368 364 364 361 366 367 361 363 364 365 367 368 371 373 370 363 357 359 359 356 356 351 350 352 359 346 345 341 342 343 348 343 350 345 345 353 351 347 347 350 350 351 351 351 360 360 357 357 359 355 367 368 370 371 372 370 368 369 370 371 371 372 370 368 367 367 366 363 362 358 358 358 359 358 357 356 355 353 353
359 362 364 363 362 360 367 369 367 363 365 365 363 363 362 364 368 369 365 367 366 365 369 367 354 355 359 356 354 354 346 347 347 346 344 341 338 337 338 343 354 362 349 353 361 351 351 360 354 353 361 363 361 361 359 363 367 375 367 371 370 371 371 373 372 370 370 372 371 369 368 366 366 364 361 358 357 357 357 358 357 355 354 353 353
358 362 363 362 361 363 360 362 360 358 360 359 360 364 365 367 365 362 367 366 372 368 366 370 363 362 358 367 365 360 354 351 343 348 344 348 339 337 342 340 342 353 357 356 350 352 352 358 354 355 363 369 364 367 363 361 376 366 367 371 372 372 373 372 371 369 369 371 370 369 367 367 366 363 362 358 357 357 357 357 355 354 354 353 352
356 358 361 357 359 360 355 359 359 363 361 359 358 362 359 360 360 366 366 366 368 365 361 362 368 364 356 366 365 353 355 346 349 351 342 341 340 337 337 339 335 343 354 350 358 352 355 354 354 354 361 359 363 365 365 364 366 365 370 370 371 371 370 370 368 369 368 371 370 367 368 367 365 363 359 358 357 356 356 356 355 354 353 352 351
360 354 355 355 359 359 358 358 361 359 361 362 360 356 356 360 366 368 368 367 370 373 364 359 354 366 357 356 355 351 356 355 356 352 349 345 344 339 338 344 343 345 347 358 357 365 357 356 360 359 361 358 362 366 367 364 373 370 369 369 367 371 369 368 369 367 368 370 369 368 368 367 366 363 360 357 356 356 356 355 354 353 352 352 351
354 352 351 352 358 361 357 357 362 362 365 365 370 369 370 362 366 359 364 364 367 365 363 359 355 361 355 358 358 359 349 352 354 348 355 353 347 344 342 343 347 344 350 348 358 359 360 357 366 363 363 369 360 364 361 363 369 369 370 365 366 370 369 367 367 368 366 369 370 368 368 367 366 363 359 358 356 356 353 354 353 353 352 351 350
349 353 352 351 355 356 363 363 364 366 367 365 369 367 368 366 365 365 358 365 369 364 367 362 362 358 358 360 355 351 351 361 360 354 354 349 348 341 345 344 342 342 352 359 357 352 356 362 371 369 367 367 368 375 374 367 373 367 365 364 361 362 368 367 368 368 367 369 369 369 369 368 366 363 359 356 355 354 354 353 353 352 352 351 350
353 356 354 355 356 357 362 363 363 366 367 364 362 366 368 367 367 365 368 365 364 363 361 356 351 352 360 363 361 363 362 359 358 351 358 347 349 344 341 343 344 347 349 356 359 358 347 362 362 366 372 378 375 384 380 376 368 368 367 376 366 360 361 366 367 369 369 368 369 369 368 367 365 361 358 355 356 357 353 352 352 352 352 351 350
357 359 353 358 356 357 360 360 365 361 365 364 363 362 367 366 366 364 361 360 363 363 361 353 352 353 351 365 363 356 357 354 356 359 353 354 349 352 347 347 352 346 348 349 353 352 351 358 366 367 373 374 372 374 371 364 368 368 367 366 368 364 358 362 364 366 369 369 369 369 368 367 365 361 358 357 356 354 355 354 353 352 352 351 350
353 353 354 361 358 358 355 353 362 363 365 365 361 364 366 365 364 365 362 360 363 363 360 358 361 353 355 353 362 360 358 361 356 354 357 358 355 355 356 357 357 354 347 347 349 346 353 360 354 372 367 373 372 374 374 373 368 365 366 367 371 372 358 356 361 361 363 366 368 369 368 366 364 360 358 357 357 355 354 354 353 352 351 350 349
350 350 353 353 358 360 359 359 357 358 360 358 360 362 364 362 362 365 362 367 370 369 367 359 357 357 353 354 354 354 356 362 357 355 361 363 358 357 362 364 372 361 355 349 348 354 357 361 358 366 371 372 363 368 371 368 363 362 365 362 363 368 356 354 359 358 358 361 364 367 368 365 363 360 358 356 355 354 354 352 352 351 350 348 347
353 357 352 350 355 355 362 355 359 359 360 358 360 366 366 364 361 362 363 369 366 365 367 364 356 354 362 351 352 356 355 352 354 351 356 359 369 358 360 373 369 365 359 356 350 360 359 357 357 356 357 363 363 359 359 360 362 361 363 359 360 356 355 359 358 358 357 358 361 363 365 365 363 359 357 355 354 353 352 352 351 350 348 347 345
348 352 349 350 351 351 351 350 350 351 352 353 354 362 365 362 359 356 359 365 363 364 360 356 352 352 354 355 363 362 363 359 354 358 363 359 364 370 366 371 368 369 367 358 353 353 366 360 363 357 358 358 364 357 362 361 362 362 364 358 361 359 361 361 355 355 355 356 359 360 360 363 362 359 355 353 350 349 350 349 349 348 347 345 343
349 348 350 351 352 351 350 351 348 352 355 353 354 357 360 362 361 364 361 362 362 360 362 359 355 356 367 368 366 365 367 362 365 356 355 353 364 361 363 368 366 363 364 362 356 355 363 368 364 363 360 358 360 363 360 361 361 361 363 362 361 361 363 367 366 349 352 355 357 357 356 356 355 354 352 350 350 349 347 347 347 345 343 341 340
349 347 350 347 350 350 349 349 350 349 356 358 351 353 356 359 357 353 354 368 366 364 363 361 360 354 359 368 363 357 363 361 355 350 356 350 360 352 359 355 355 360 362 361 358 355 353 364 360 366 364 362 355 362 361 355 359 358 360 360 361 360 360 365 366 356 350 352 351 351 350 348 348 348 350 349 348 347 346 344 340 338 337 335 334
349 350 348 348 353 352 350 350 351 351 354 352 351 352 354 358 357 354 351 361 364 363 361 362 357 361 358 360 356 358 355 353 356 356 355 355 356 355 351 360 361 362 359 363 362 355 350 354 364 360 362 361 358 350 354 355 356 359 358 357 359 360 363 365 360 357 344 348 347 346 345 344 344 344 345 346 345 344 340 336 331 329 330 328 328
347 354 353 350 354 361 351 355 353 350 356 350 350 351 357 357 357 359 359 360 361 361 359 356 355 356 356 357 354 355 358 361 364 366 369 360 362 361 359 357 359 360 360 363 362 359 355 352 358 359 363 360 352 350 355 359 358 357 357 358 359 358 361 361 358 354 346 346 345 344 342 341 340 340 340 339 337 332 328 327 326 325 325 324 324
347 349 357 353 353 355 347 349 352 352 351 351 353 350 350 353 356 356 356 357 355 358 357 360 360 361 360 358 359 360 358 355 358 364 360 358 363 365 362 364 364 360 360 362 366 363 359 355 356 362 364 358 353 351 354 353 352 355 356 354 355 358 359 356 353 347 343 342 341 340 339 339 338 335 333 332 331 328 327 326 325 324 324 324 324
351 349 351 350 349 352 350 350 349 354 355 356 356 354 351 351 352 354 355 357 354 355 359 359 360 361 358 363 359 359 357 358 362 366 361 363 364 362 362 365 362 360 364 366 366 362 359 358 354 355 360 354 353 351 353 354 349 349 352 353 354 354 356 354 353 351 348 345 342 339 336 335 333 331 332 330 328 327 325 325 325 324 323 322 322
348 348 348 351 354 350 351 350 348 353 355 350 359 357 354 352 350 352 350 353 354 356 358 360 359 366 360 357 361 360 362 364 360 360 360 360 358 357 363 361 361 360 360 362 363 361 358 357 359 357 356 359 357 351 354 355 351 349 347 348 349 353 354 352 350 354 352 345 343 342 339 337 333 329 328 327 327 326 326 325 325 324 324 321 320
349 349 349 349 350 352 353 352 353 354 356 356 359 359 355 353 353 355 357 355 354 355 356 360 361 361 364 363 359 357 364 372 369 364 364 362 363 358 363 363 362 361 360 363 362 361 354 354 355 354 355 357 353 349 350 349 348 350 351 347 344 347 348 350 349 349 351 349 342 337 334 332 331 330 329 329 329 328 328 327 327 326 326 324 324
348 348 349 351 352 353 354 355 355 352 350 352 353 353 355 356 355 352 354 356 356 357 359 356 360 366 363 364 359 356 365 362 366 366 364 364 362 362 365 364 365 362 360 360 360 353 351 353 354 356 354 351 349 348 347 345 343 342 347 350 347 348 348 347 348 350 349 349 345 339 337 333 329 332 332 330 329 330 330 329 328 328 326 326 324
353 354 352 352 353 354 354 355 355 354 352 351 360 361 360 357 357 354 353 357 361 363 364 361 359 365 360 362 363 366 367 364 362 365 368 367 365 361 366 368 366 362 361 359 357 351 349 348 350 351 348 346 344 348 347 349 350 349 348 348 345 346 345 345 345 344 349 346 346 343 342 342 338 337 339 332 333 334 331 329 328 326 325 325 325
355 361 359 351 351 353 353 354 352 352 352 352 357 348 349 358 360 358 361 370 366 366 361 363 363 363 361 359 362 364 362 360 357 362 365 368 365 365 366 362 363 365 359 358 355 354 350 348 349 349 348 347 347 349 347 350 350 348 349 347 344 343 343 341 338 341 349 349 345 343 342 346 345 334 330 329 326 325 326 326 327 326 325 325 325
360 359 360 360 357 356 356 353 353 354 357 362 342 343 346 348 361 362 362 363 361 361 363 359 360 362 363 362 361 361 358 358 357 360 366 366 366 366 361 362 364 362 359 360 357 354 352 350 348 348 347 345 347 348 348 349 348 349 347 346 345 346 343 340 337 337 342 348 343 337 334 337 337 333 329 327 323 322 323 324 325 324 324 324 324
361 360 360 357 356 357 355 357 355 356 356 349 337 340 343 344 349 363 357 360 359 361 361 361 363 367 371 366 359 357 357 365 364 360 364 366 367 364 363 363 359 354 344 349 355 354 354 352 348 346 344 346 345 344 345 348 351 347 348 346 345 343 342 339 339 338 342 348 344 339 334 333 332 327 322 322 323 324 321 322 323 322 322 322 321
365 363 359 355 357 361 358 359 358 357 356 353 336 338 339 340 343 354 360 359 357 358 362 361 362 364 363 363 362 358 359 363 364 359 357 363 365 363 362 360 356 352 352 351 351 354 354 350 346 340 339 341 339 339 342 345 347 345 344 341 343 339 337 335 336 335 336 343 343 333 327 327 325 323 320 320 319 319 318 318 319 320 320 319 319
359 361 360 358 358 359 359 358 354 352 351 339 333 336 335 336 340 353 359 357 356 359 363 365 365 361 362 364 365 364 360 361 360 359 358 359 360 359 357 352 340 338 336 336 339 341 342 340 334 332 332 333 335 336 338 341 344 347 345 343 341 338 337 338 336 334 332 338 336 330 322 323 326 324 322 321 319 318 318 317 317 319 319 318 319
359 359 361 360 358 358 359 358 356 355 354 331 332 333 333 334 339 354 358 360 359 357 358 363 363 364 363 364 362 361 358 357 355 352 357 360 358 356 352 341 335 330 327 327 325 332 334 329 328 328 329 331 334 335 336 337 342 348 342 340 340 338 336 331 327 327 327 331 332 327 323 323 326 321 320 320 319 318 318 318 320 320 320 318 318
354 359 357 357 359 358 359 360 358 358 357 338 329 330 331 331 342 356 358 355 357 357 357 361 364 367 369 364 357 356 358 356 349 335 343 361 357 354 349 340 335 327 324 325 322 321 321 321 322 325 325 325 325 325 324 327 336 342 343 338 337 338 329 325 324 323 323 327 329 332 324 322 324 324 322 324 323 320 319 317 317 318 318 319 318
352 353 357 358 359 359 358 359 357 357 355 350 327 327 329 329 348 355 357 357 357 358 359 358 370 360 358 359 354 356 357 357 344 333 340 359 356 353 349 340 334 327 324 325 322 325 325 323 324 325 327 328 331 331 330 329 329 338 344 336 334 333 327 323 319 320 322 325 328 331 322 318 321 323 321 324 325 325 324 322 321 319 317 316 316
352 354 356 357 359 360 360 361 363 357 355 348 325 327 326 327 343 357 360 357 356 356 363 362 358 355 353 354 356 354 355 347 328 333 338 360 356 354 351 342 336 331 328 325 324 325 327 327 329 333 336 337 334 335 335 335 335 335 331 338 334 333 327 323 320 319 317 319 326 331 324 321 322 325 327 321 320 323 328 327 328 322 319 321 321
Wind_Speed
4 5 5 5 4 5 5 5 5 5 5 5 5 5 6 4 1 1 2 3 4 2 2 1 4 3 3 3 4 2 6 5 3 9 8 7 6 7 10 8 7 6 5 4 3 4 5 4 4 4 4 4 5 5 5 5 6 6 6 7 8 9 9 10 10 11 11 11 12 13 13 13 12 11 11 11 10 10 10 10 11 11 11 11 11
5 4 5 4 5 5 5 5 6 5 6 4 4 4 4 3 2 2 2 4 3 4 3 2 7 5 5 4 4 5 2 3 2 6 8 7 6 7 11 10 8 6 6 5 5 5 5 5 5 5 5 6 5 5 5 6 6 7 7 8 8 9 10 10 11 11 11 11 12 12 11 11 10 9 9 8 8 9 9 9 9 9 9 9 9
4 4 4 4 5 6 6 5 4 3 3 4 3 3 2 1 4 3 3 4 2 3 3 3 3 5 5 7 5 4 4 5 5 6 8 7 7 6 9 13 11 9 7 7 6 6 6 6 6 6 6 6 6 5 6 7 7 8 8 8 9 9 10 10 10 11 11 11 11 11 10 9 8 7 6 6 7 7 7 7 8 8 8 8 8
3 4 5 5 5 5 3 4 3 2 0 2 3 3 2 3 3 3 1 1 1 0 5 3 3 3 3 7 5 4 4 3 6 6 7 6 7 6 6 9 12 12 10 9 9 8 7 8 7 7 7 7 7 7 7 8 8 8 9 9 9 10 10 10 10 10 10 10 10 9 8 6 5 5 5 5 6 6 7 8 9 9 9 9 8
5 7 4 4 2 2 3 3 4 0 2 4 3 2 3 3 2 4 3 3 3 2 4 1 5 4 4 6 4 4 3 5 3 8 6 6 6 7 6 7 8 12 12 11 11 10 10 9 9 9 8 8 8 9 9 8 8 9 9 10 10 11 11 11 10 9 9 9 9 7 5 5 4 4 5 6 7 8 8 9 10 10 11 11 10
3 3 5 8 8 4 2 3 3 4 2 3 2 2 1 0 0 2 2 2 2 2 3 4 4 2 3 5 5 3 4 3 3 6 5 5 5 4 5 5 5 5 7 13 12 12 12 12 11 10 9 9 10 10 10 9 9 9 10 10 11 11 11 11 10 9 8 8 7 6 5 4 3 4 5 7 8 8 9 9 10 11 11 11 12
4 6 7 7 8 9 5 3 1 3 1 2 2 1 1 2 2 3 3 3 3 1 2 1 4 1 3 3 7 5 4 5 2 5 4 4 4 6 4 4 5 5 5 5 10 13 12 12 12 11 11 11 11 11 11 11 11 11 11 11 11 11 11 11 9 8 7 7 6 5 3 3 3 5 6 7 8 8 8 8 9 10 11 11 12
6 6 5 6 4 1 7 8 7 2 1 3 3 3 4 3 4 4 4 5 4 4 4 2 4 3 4 4 2 3 3 2 2 5 7 5 4 4 5 5 5 4 4 5 5 7 14 12 12 12 12 12 12 12 12 12 12 12 11 11 11 11 11 10 9 7 6 5 5 4 3 2 4 5 6 6 6 6 7 7 8 9 10 10 11
7 7 5 3 3 3 1 3 11 3 3 2 3 3 3 4 4 5 0 2 5 4 4 2 3 2 3 2 1 1 4 3 4 2 5 5 5 5 3 4 3 5 4 4 3 4 10 14 13 12 12 13 12 12 12 12 13 12 12 12 11 10 10 9 8 6 5 4 4 3 1 2 3 3 4 5 6 7 7 8 9 10 10 11 11
6 5 4 4 1 1 5 7 3 0 1 1 2 2 2 3 4 5 2 2 2 1 2 3 6 6 5 5 1 3 4 3 3 4 3 1 1 1 6 4 3 5 4 4 6 4 5 9 13 12 12 13 13 13 12 12 13 13 13 12 11 11 10 9 7 5 4 3 2 1 0 1 2 2 4 5 6 7 8 9 10 10 10 10 11
5 6 6 5 1 2 6 4 1 1 2 2 2 2 1 2 6 1 2 2 3 2 4 1 3 1 4 1 3 3 1 2 1 2 1 2 4 3 3 4 5 5 3 2 2 4 4 5 5 5 7 14 15 13 13 13 13 13 13 13 12 11 10 9 7 5 3 2 1 1 1 1 1 3 4 5 6 7 8 9 9 9 10 10 11
6 7 4 2 5 4 9 2 1 2 2 2 2 3 2 5 6 2 3 4 3 5 3 3 1 5 4 4 3 3 1 1 3 2 2 3 2 2 2 4 3 3 3 3 3 4 4 5 6 6 6 9 14 13 13 13 13 13 13 13 12 11 10 9 7 5 3 2 1 2 2 1 1 3 4 5 5 6 7 8 8 9 9 10 10
7 6 5 5 5 5 4 1 1 1 1 1 2 2 2 2 6 1 2 3 4 2 2 3 3 0 1 2 3 3 3 2 3 3 3 1 1 2 4 1 2 3 2 4 3 5 5 5 4 4 4 3 7 11 13 12 12 11 11 12 11 11 10 10 8 5 3 2 3 3 2 1 2 3 4 4 5 6 7 8 8 9 9 10 10
7 6 6 5 4 3 2 2 3 2 2 2 4 2 3 5 2 1 3 4 1 2 7 2 2 3 2 2 3 4 4 4 6 7 1 5 3 1 2 1 3 2 2 1 3 5 6 4 5 3 3 3 3 3 5 7 8 11 12 12 11 10 10 10 8 5 4 3 4 3 3 2 2 3 3 4 5 7 8 8 9 9 9 10 10
8 8 6 4 4 3 2 3 4 4 4 3 3 2 2 5 5 3 6 6 2 1 3 1 2 0 3 3 3 1 3 2 4 1 4 2 4 3 5 2 5 4 2 2 2 4 4 2 2 1 3 2 0 3 3 3 6 11 12 12 10 11 11 10 8 6 4 3 4 4 4 3 3 2 3 5 6 7 8 8 8 8 9 10 11
9 4 3 2 4 4 4 5 4 2 2 1 2 3 1 1 1 1 1 4 2 2 2 2 2 1 2 1 3 1 2 2 2 4 12 4 6 6 4 2 2 4 3 3 4 4 4 1 1 1 2 1 1 2 2 1 3 3 6 10 10 9 9 9 8 6 5 4 5 5 5 4 3 2 3 5 6 7 7 8 8 9 9 10 10
12 8 4 4 5 5 5 4 3 3 2 2 1 3 3 2 2 2 1 2 2 1 0 2 2 2 3 2 3 2 1 1 3 6 3 9 8 3 5 5 2 1 3 2 2 5 5 1 1 1 2 2 3 2 2 3 1 1 3 8 9 8 8 9 8 6 5 5 6 6 5 4 3 3 4 5 7 7 7 7 8 8 9 9 10
12 11 11 10 6 9 4 4 3 2 3 2 3 2 2 1 2 2 2 2 1 2 4 2 3 4 3 4 3 3 4 1 2 2 1 5 5 9 4 6 6 6 4 3 2 1 5 2 1 0 1 3 1 1 3 1 2 1 2 4 9 9 9 8 8 7 6 5 6 6 6 5 3 3 4 6 7 7 7 7 7 8 8 9 9
11 14 7 9 12 8 5 5 4 4 3 4 4 4 3 2 1 1 2 0 0 3 3 2 2 3 3 4 3 1 3 1 2 2 3 3 6 5 3 7 4 3 4 4 3 1 1 2 2 1 1 3 4 3 5 6 5 5 6 9 9 8 8 8 8 7 6 5 6 6 6 5 4 4 5 6 6 6 6 7 7 8 8 9 9
8 11 15 15 10 7 5 4 5 5 4 3 3 2 2 3 2 2 2 0 1 3 2 1 1 1 4 4 3 1 2 3 5 3 4 1 3 3 0 6 3 1 2 4 2 1 1 3 2 2 2 2 1 2 2 3 3 5 3 9 8 8 7 7 7 6 6 5 6 6 6 5 4 5 5 6 5 5 6 6 7 8 8 8 9
8 8 7 7 8 7 6 4 4 4 3 3 2 3 4 4 3 2 2 1 1 2 1 1 2 2 1 3 3 3 3 3 8 6 4 4 5 8 9 5 1 2 2 2 2 3 3 1 2 3 1 1 2 2 1 2 3 2 5 6 7 7 7 7 7 7 6 6 6 6 5 5 4 4 5 5 5 5 6 6 7 8 8 8 9
9 7 7 6 6 6 6 6 6 6 4 4 3 3 3 3 3 2 0 3 1 1 2 2 1 2 1 2 2 2 3 3 5 4 4 2 4 5 8 3 5 3 1 2 3 3 3 1 2 2 3 1 1 2 3 3 1 2 4 7 7 7 7 7 7 7 6 6 6 6 6 5 5 5 6 5 5 5 6 6 7 7 8 8 9
7 7 7 8 7 6 8 8 6 4 5 5 5 7 6 5 5 3 2 2 1 1 1 0 2 2 3 3 0 1 3 3 2 2 2 3 2 2 5 4 6 1 2 5 5 3 2 3 0 1 1 2 2 2 2 2 7 5 9 8 6 6 6 6 7 7 6 6 6 6 6 6 6 6 6 6 6 5 6 7 7 7 8 8 10
5 6 7 9 7 6 7 7 5 5 5 5 6 4 4 3 4 3 3 3 2 2 1 2 1 1 3 2 3 2 3 2 3 2 4 5 3 2 4 5 6 1 2 2 5 2 3 2 3 2 3 4 4 4 4 2 2 10 7 8 9 9 8 8 7 7 6 6 6 7 6 6 6 6 6 6 6 6 6 7 7 7 7 8 9
7 8 9 10 6 6 6 8 7 6 4 4 2 3 3 4 4 5 4 4 2 3 2 3 2 2 1 0 3 1 2 2 4 5 5 4 3 0 5 7 3 3 3 4 1 2 1 3 0 1 2 3 3 4 4 3 4 6 6 10 11 10 10 8 8 7 7 7 7 7 7 7 7 7 7 6 6 7 7 6 7 7 7 8 9
9 7 8 10 8 7 5 5 6 5 5 5 3 4 4 4 3 2 6 3 2 2 2 3 3 3 3 1 3 3 2 3 4 1 4 4 3 1 3 7 5 3 1 1 2 1 0 3 1 0 1 3 0 1 3 2 2 3 5 3 9 10 8 8 8 8 7 7 8 8 8 8 8 8 8 7 7 6 6 6 7 7 7 8 9
6 6 8 7 9 6 7 4 6 6 6 5 5 4 5 4 3 2 1 2 2 3 4 6 5 4 2 2 1 0 2 2 4 4 3 3 3 4 3 6 3 2 3 2 2 1 2 1 2 2 0 1 2 1 1 2 2 6 6 1 2 7 8 8 8 9 9 9 8 8 8 8 8 8 8 8 7 6 6 6 7 7 7 8 8
5 4 5 4 6 7 7 8 5 7 7 7 6 5 6 5 4 3 3 4 4 5 4 5 4 4 5 2 2 3 2 3 2 3 4 3 5 4 3 7 1 2 3 2 1 1 2 0 1 0 2 0 2 2 1 3 2 6 5 2 3 3 7 7 8 8 9 10 10 10 10 9 8 8 8 8 7 7 6 6 6 7 7 7 8
7 7 7 4 6 6 7 8 7 6 5 5 5 5 5 4 6 5 6 6 4 5 5 5 3 4 1 5 2 3 3 2 2 1 2 3 2 4 6 4 4 1 1 2 1 2 2 2 2 1 2 0 2 2 1 1 1 1 2 2 2 0 6 10 9 8 7 8 8 9 10 10 9 8 8 8 7 7 6 7 7 7 7 7 8
8 9 7 8 6 8 7 6 8 7 7 7 6 5 6 5 5 5 4 3 2 3 4 4 4 4 6 3 3 3 4 2 2 6 7 6 6 3 0 2 2 2 2 1 1 1 1 1 1 0 1 0 1 1 1 2 3 3 2 7 4 2 4 9 10 9 7 6 8 9 10 10 10 9 9 8 7 7 7 7 7 7 7 8 8
7 6 8 9 6 6 5 7 7 7 6 7 7 5 6 5 5 5 5 4 5 4 4 4 5 4 2 6 7 3 5 6 2 2 5 4 2 5 5 2 2 2 3 3 1 2 1 1 1 3 2 2 2 3 2 2 2 5 4 3 1 6 9 5 6 4 3 5 7 9 9 9 12 10 9 8 9 8 8 7 7 8 8 8 9
8 6 9 8 8 9 8 9 9 10 9 8 10 7 7 6 6 7 6 5 5 5 5 5 7 7 6 3 2 3 2 1 4 2 1 1 4 1 1 1 3 3 4 4 3 3 1 2 1 2 1 1 1 1 2 2 3 4 7 0 1 4 2 2 1 3 4 5 7 9 8 9 11 10 10 10 10 9 9 8 8 8 8 9 9
7 7 6 7 8 8 10 8 9 8 7 7 7 7 7 6 6 4 6 7 6 5 4 5 7 4 2 1 2 2 2 2 2 2 1 2 2 3 3 1 2 4 3 3 3 3 1 1 2 0 3 2 1 2 4 1 1 3 3 2 2 1 2 1 1 5 2 4 6 8 8 10 11 12 11 11 10 10 9 9 9 9 9 9 9
7 10 8 9 9 9 9 9 8 9 7 6 8 6 7 6 7 7 5 3 4 4 4 5 5 5 3 2 3 4 3 3 3 4 1 5 1 4 2 5 4 5 6 4 3 2 2 1 2 2 2 5 3 4 2 2 5 6 4 4 4 3 4 3 4 4 5 4 5 8 11 13 12 11 10 11 11 10 10 11 11 9 10 10 9
7 7 9 9 5 8 9 7 7 6 8 9 7 6 7 8 7 8 7 7 6 7 7 5 5 4 5 4 4 4 5 4 5 5 6 3 1 3 3 1 1 0 5 2 2 1 1 2 2 1 0 2 4 11 9 8 6 4 4 4 3 3 3 4 5 4 6 8 10 11 12 12 12 12 10 10 10 11 11 11 10 10 9 9 9
9 6 6 8 6 4 7 6 8 7 6 9 8 7 5 8 7 6 6 6 9 9 8 8 7 6 5 5 6 4 3 3 2 2 1 2 2 2 2 2 2 2 4 4 3 3 2 1 1 1 2 3 9 5 3 1 2 0 1 2 2 3 3 4 6 5 6 10 10 11 12 12 12 11 11 11 11 10 11 11 11 10 9 9 9
8 8 6 7 6 5 7 7 6 8 7 8 7 7 6 5 7 8 8 6 5 5 6 4 5 4 5 6 4 3 4 5 3 2 1 2 1 3 1 0 1 1 1 0 0 2 2 1 2 1 2 5 5 2 1 2 1 1 3 4 4 3 4 6 5 6 9 11 11 11 11 11 11 11 10 10 12 13 13 11 11 9 8 8 8
6 6 7 7 7 6 6 7 8 6 6 5 6 7 8 8 8 9 7 6 6 6 6 7 7 7 5 3 5 5 4 3 2 1 1 2 1 2 2 2 2 1 2 0 2 2 2 2 2 1 2 3 3 1 2 3 4 2 1 1 3 4 3 3 4 4 4 4 4 4 6 8 10 12 11 12 13 14 14 8 7 5 7 8 8
9 8 8 7 5 7 8 9 9 6 6 7 4 6 6 6 7 6 7 7 8 6 5 5 5 3 4 5 3 4 3 1 2 3 3 2 2 0 1 1 1 1 1 2 2 2 2 2 1 2 2 2 3 3 3 3 3 2 1 1 2 3 4 4 4 3 3 5 5 5 6 6 8 7 11 12 11 11 11 10 7 7 8 8 8
10 10 10 11 10 9 8 9 8 7 5 6 5 5 6 7 6 4 5 5 6 6 6 6 6 5 4 3 3 8 4 1 1 3 3 3 2 2 3 2 3 2 2 1 2 1 3 3 1 2 2 2 3 2 2 2 1 1 1 1 1 2 4 3 3 2 2 4 5 5 8 9 8 10 10 9 9 9 9 8 8 9 9 7 7
10 11 10 10 9 10 10 8 9 9 8 8 7 8 7 7 7 7 8 9 8 6 5 5 4 3 3 3 4 5 3 3 6 5 7 5 3 2 3 4 3 2 2 2 1 3 1 1 1 1 1 3 2 0 2 3 2 1 1 1 1 2 3 2 3 4 6 2 3 4 4 4 5 5 5 5 5 7 6 6 8 9 8 7 7
8 7 7 7 10 9 8 8 9 10 9 8 8 11 10 7 8 8 8 7 5 3 3 3 4 3 4 2 6 12 8 6 2 7 4 7 4 2 2 1 2 3 2 2 2 2 3 1 1 1 2 2 2 1 1 1 1 1 1 1 1 2 2 1 3 3 3 4 3 4 4 3 3 5 4 6 5 5 4 2 4 5 6 7 7
7 5 4 8 8 9 10 9 9 11 9 8 12 13 11 10 8 7 2 2 1 2 4 3 3 3 3 4 4 6 7 4 3 9 9 5 3 2 1 2 2 1 2 1 3 2 2 0 1 1 0 1 1 2 2 2 1 2 2 1 1 1 1 1 3 3 1 1 3 4 4 4 4 8 8 6 6 6 5 5 8 9 9 8 7
6 7 6 5 5 6 5 7 8 9 6 6 15 15 14 15 12 4 3 3 2 3 3 4 4 3 3 4 4 3 3 5 5 4 5 4 4 4 3 2 4 9 6 3 2 0 1 1 1 2 2 3 2 2 1 1 0 0 2 2 2 2 3 4 2 3 0 1 7 8 8 7 7 6 6 5 6 6 6 6 8 8 8 7 5
4 5 5 5 5 4 6 7 8 6 4 1 12 15 14 13 11 8 5 4 4 3 4 3 3 1 2 4 4 4 3 9 6 3 0 2 5 6 5 6 8 8 6 5 5 3 2 1 1 5 4 1 3 2 3 2 1 2 2 3 3 4 6 6 5 4 2 2 5 7 7 5 5 6 6 6 5 4 5 7 8 8 7 6 5
3 4 7 7 6 5 5 5 6 5 4 6 11 13 13 13 12 10 5 5 6 5 5 5 4 3 3 3 4 5 4 5 4 4 3 3 4 3 3 3 5 7 7 8 7 6 6 6 5 5 3 2 3 2 3 5 2 3 3 4 3 5 6 6 5 4 3 2 3 7 6 5 6 6 5 4 4 4 4 5 7 7 6 6 5
5 4 5 5 5 6 6 5 5 7 9 13 13 13 12 13 13 10 7 6 5 4 3 4 5 6 5 5 3 2 5 4 3 3 4 4 3 3 4 6 6 5 5 5 5 5 6 5 6 5 3 3 3 2 2 2 3 2 3 4 5 7 7 5 5 5 6 5 5 4 4 4 3 6 5 5 4 4 3 4 5 4 3 3 3
4 5 5 6 6 7 6 7 6 7 4 14 14 15 13 13 12 7 7 5 4 5 4 4 5 5 6 7 6 4 6 5 5 5 7 5 4 5 5 7 6 5 5 4 4 8 7 7 6 5 3 3 3 2 2 3 3 2 6 7 6 5 5 5 6 5 6 4 4 6 5 5 3 6 5 5 4 3 2 1 1 3 3 4 4
4 5 6 6 6 7 7 6 7 7 6 11 14 15 14 15 10 6 6 5 5 5 5 4 4 3 3 4 8 2 2 2 8 9 7 9 5 6 7 7 6 6 4 3 8 12 13 12 11 10 8 7 5 4 5 5 5 2 4 5 4 3 6 6 6 5 5 4 5 2 6 5 4 4 4 3 3 4 3 3 3 4 6 6 5
6 5 6 6 5 6 7 8 10 8 9 8 13 14 16 15 12 8 6 5 5 5 5 6 1 6 3 4 4 1 3 3 5 10 10 8 6 6 7 9 7 7 6 5 4 4 6 8 8 8 8 7 6 8 11 13 15 10 2 5 5 4 5 6 7 5 4 4 5 6 4 4 4 3 3 1 1 1 4 5 5 4 5 5 7
4 3 3 6 6 6 7 7 13 12 8 3 9 9 9 12 11 6 5 5 5 6 5 3 4 4 4 4 1 3 3 7 10 10 10 8 6 7 8 8 7 7 6 7 6 5 3 4 3 3 2 3 4 4 7 13 15 12 8 3 5 5 5 6 7 6 5 4 4 6 2 3 4 2 1 3 2 0 1 3 4 5 5 4 5
Wind_Direction
190 197 183 195 204 197 178 192 204 196 182 217 185 196 217 207 155 284 174 293 145 152 154 252 112 106 108 69 98 44 69 84 150 124 127 132 141 152 157 162 168 180 191 192 201 196 208 212 222 237 246 256 266 270 273 285 295 299 295 305 309 309 308 308 309 310 312 312 311 310 311 313 316 318 322 325 329 331 329 325 326 329 331 332 332
195 202 193 204 215 200 196 201 208 201 193 167 196 216 225 116 188 232 210 255 174 147 194 227 105 131 128 129 142 103 128 127 110 129 136 136 136 154 166 169 177 186 196 201 216 221 213 223 231 236 245 255 270 280 282 281 285 283 293 297 304 305 306 307 306 308 311 312 312 314 319 321 321 325 329 332 332 335 336 337 341 341 340 339 339
205 203 212 214 218 212 198 208 198 197 186 144 204 225 109 182 200 208 229 271 163 166 205 179 134 151 154 144 135 135 164 165 161 140 120 128 136 155 172 174 178 188 190 209 213 224 234 233 235 241 244 252 263 276 279 281 284 291 294 298 297 299 302 304 305 309 311 310 312 318 326 329 330 330 328 330 340 352 354 348 347 347 345 344 342
255 214 219 222 213 215 189 164 175 133 38 123 105 255 121 208 213 303 222 286 359 101 263 178 171 134 207 133 133 134 183 177 170 123 112 143 143 153 161 176 182 185 193 198 209 217 227 237 240 244 251 258 262 265 273 276 278 284 289 290 291 295 297 300 303 306 309 310 314 327 337 340 339 329 334 347 6 15 8 3 1 355 349 349 350
269 233 226 219 179 83 48 5 5 153 175 158 194 235 150 214 223 242 156 214 181 219 277 160 163 151 201 135 144 142 172 199 132 126 136 141 146 152 166 173 177 186 193 201 204 209 219 229 236 242 247 252 257 259 263 267 270 276 281 285 287 290 293 297 302 305 309 311 317 337 346 348 348 348 354 12 24 24 21 18 9 1 359 359 359
276 45 27 18 10 17 24 53 305 300 120 106 111 216 267 116 252 281 222 302 168 172 261 237 70 168 198 126 102 151 221 107 144 109 148 138 132 147 170 160 161 174 187 202 208 211 215 220 225 234 242 246 251 256 257 259 262 267 273 278 283 286 289 294 299 306 310 312 324 337 350 356 11 7 19 27 30 30 28 23 15 9 6 7 4
48 55 47 50 32 335 357 12 291 255 56 146 188 198 184 225 217 240 203 237 152 237 262 255 160 153 32 127 156 168 193 177 141 151 127 123 156 156 155 139 167 186 175 166 205 214 219 224 227 228 230 238 246 251 254 254 256 259 263 271 276 282 285 290 296 304 310 316 327 338 360 19 19 22 28 31 31 31 27 25 19 13 13 13 12
64 54 54 67 89 16 346 323 296 250 119 22 1 16 328 251 214 243 212 194 192 174 215 65 48 83 41 8 26 101 64 81 175 162 139 138 160 151 150 174 181 173 171 175 168 200 212 220 227 230 231 229 233 242 246 249 251 252 256 262 269 274 281 287 292 299 309 321 329 343 13 23 23 24 30 31 32 29 27 23 21 17 16 16 13
71 67 57 61 57 111 213 226 268 36 38 49 57 35 340 322 312 287 3 295 198 165 83 139 143 168 139 197 179 329 80 41 1 52 90 136 152 159 185 151 149 152 160 162 194 169 201 211 218 229 238 238 230 233 241 249 250 249 251 254 259 267 273 281 289 296 300 320 330 352 11 30 36 36 35 35 29 25 21 21 19 20 17 16 17
71 79 91 39 60 173 228 232 251 116 137 93 143 117 264 316 310 292 282 304 357 122 160 154 194 164 203 137 135 76 87 26 23 44 71 29 333 237 172 149 163 192 193 201 165 179 185 206 215 216 232 243 239 232 232 240 248 254 253 251 254 260 267 276 284 289 295 306 333 28 323 63 61 49 44 36 29 23 20 19 19 20 15 18 17
77 59 54 58 328 243 292 248 9 338 36 19 26 102 16 325 275 249 316 332 263 179 192 279 10 179 130 162 133 80 113 161 298 57 235 222 192 235 129 155 188 171 185 148 178 173 191 169 195 214 221 232 235 230 228 229 236 243 248 250 251 255 263 268 270 280 277 290 286 188 170 121 77 54 47 37 31 25 23 22 20 21 18 22 18
89 110 111 190 216 173 226 258 152 84 50 0 16 38 57 333 290 276 6 309 327 284 129 75 339 25 48 64 95 100 130 111 184 196 242 217 205 223 242 172 161 172 165 219 185 231 176 164 186 195 222 212 216 224 225 226 229 232 234 242 247 250 255 260 263 254 252 256 184 195 196 178 88 64 50 40 34 32 32 28 23 23 25 27 22
128 129 166 194 177 218 249 320 97 172 110 359 3 347 8 273 270 237 250 259 241 18 37 114 117 58 291 173 144 172 181 211 236 231 225 87 65 46 331 315 88 143 203 174 186 240 166 198 184 208 224 230 197 217 222 225 225 226 229 233 242 247 249 253 256 245 222 208 173 195 207 163 108 78 59 50 39 40 39 33 26 29 31 33 28
134 149 181 181 203 199 208 207 193 192 188 203 171 235 344 330 283 21 262 266 317 185 136 150 112 169 188 202 219 149 184 186 201 220 114 80 24 339 322 9 30 313 310 82 202 237 261 176 181 204 231 236 206 207 211 230 229 225 224 222 225 237 244 251 249 241 215 188 171 186 182 168 114 94 78 58 48 45 40 37 31 32 35 34 34
138 166 187 191 203 205 177 212 214 190 174 192 121 68 349 343 336 358 16 277 144 199 62 69 147 81 60 69 345 62 351 322 268 199 131 13 42 330 296 155 224 211 240 218 247 288 284 346 65 212 200 210 6 276 265 207 206 212 219 215 215 224 240 246 247 235 217 178 168 173 171 170 136 104 80 63 54 48 47 42 38 38 37 39 36
141 135 227 190 218 206 201 213 219 162 105 158 145 121 68 356 311 313 311 355 330 47 300 151 80 62 68 151 197 146 15 319 349 12 71 345 211 214 189 243 321 31 10 8 356 320 294 59 117 322 355 312 259 287 297 276 315 325 222 198 204 217 234 241 240 230 208 171 165 172 171 161 139 108 77 67 58 56 53 51 46 45 44 43 37
140 152 181 221 252 238 203 197 196 154 147 140 50 73 203 120 297 310 38 352 22 98 341 40 42 109 133 78 47 39 241 188 351 36 239 174 224 193 164 153 90 8 51 355 1 304 293 221 84 245 280 273 264 233 241 263 84 252 137 180 195 211 225 237 235 226 208 178 167 171 163 155 141 108 82 69 63 57 57 54 50 52 47 47 37
136 145 161 206 211 241 204 184 176 182 173 146 118 190 151 188 153 229 130 80 115 1 53 24 28 340 181 173 158 169 191 230 323 137 284 8 190 200 143 144 169 158 171 202 195 214 259 311 310 337 289 289 239 153 285 181 206 146 149 194 201 205 216 226 229 220 207 184 171 171 161 149 136 112 83 71 64 60 58 56 54 54 53 49 42
140 153 150 211 187 215 181 186 168 172 153 143 178 148 156 136 128 96 65 105 70 65 36 57 15 335 15 333 196 332 360 134 196 76 2 323 318 308 171 140 139 120 138 183 233 163 272 264 224 154 331 326 354 335 353 352 349 345 188 187 190 201 208 223 226 220 207 189 176 173 161 145 130 107 86 73 66 62 59 60 57 57 56 52 48
144 153 179 191 170 173 197 170 164 167 150 139 116 131 152 141 120 101 151 26 79 51 88 4 84 186 34 349 348 56 312 321 76 140 172 205 265 246 107 109 123 97 181 128 127 7 265 255 139 54 47 51 56 39 346 339 278 185 172 154 173 189 203 215 218 218 214 195 181 175 159 143 131 108 90 79 69 66 65 59 57 57 55 49 48
148 177 171 165 174 170 166 176 148 146 138 101 165 180 153 128 141 144 109 108 27 110 82 106 321 97 61 12 355 335 342 26 60 56 64 3 353 356 6 345 94 142 97 354 333 223 220 181 133 132 74 219 97 102 247 261 292 355 129 153 166 187 200 204 206 212 213 201 185 178 160 145 131 115 101 90 82 74 68 62 60 57 53 50 49
160 170 177 173 178 167 168 164 157 158 140 145 185 192 167 147 144 112 178 92 178 185 189 135 60 343 164 168 66 335 8 44 51 65 51 82 84 349 249 279 298 315 84 295 249 238 167 154 144 180 175 189 207 135 280 263 177 120 144 160 177 188 193 196 206 212 215 202 187 178 164 148 140 124 109 101 93 82 72 69 62 58 55 52 49
173 169 172 177 173 176 173 162 166 153 138 161 198 191 164 168 147 153 159 140 193 132 341 108 160 227 266 133 217 75 121 21 68 73 99 106 84 264 310 280 303 192 262 206 248 240 182 144 198 126 195 194 214 188 194 284 254 170 152 170 169 193 196 198 205 216 214 206 191 179 168 153 142 127 114 108 98 87 80 75 68 62 61 58 54
177 171 173 185 162 188 176 148 155 164 170 177 213 164 154 148 136 150 144 172 223 93 341 287 245 155 311 55 65 39 108 148 154 157 145 133 148 264 312 288 267 265 246 284 247 263 120 155 191 204 174 160 179 193 177 208 70 136 167 173 181 191 201 201 205 206 210 203 192 180 168 156 147 134 125 116 105 96 92 85 77 72 68 66 62
165 178 178 180 162 193 173 151 155 175 167 168 210 130 117 145 165 177 165 167 193 180 195 234 216 250 280 200 106 115 199 118 144 177 148 141 167 109 263 279 264 246 199 218 192 191 209 112 244 89 212 205 174 180 182 180 159 181 235 178 190 189 198 207 200 199 202 200 192 181 169 157 150 142 134 125 115 107 98 95 89 81 76 72 68
174 171 186 177 165 186 151 157 144 172 159 175 166 156 148 158 177 203 181 180 173 180 216 241 239 233 221 242 145 185 223 165 165 179 126 130 123 214 301 284 271 279 252 63 295 54 314 118 211 191 29 358 61 183 106 103 132 176 272 191 191 193 193 201 202 194 194 197 195 185 175 164 156 148 141 138 130 117 110 101 93 87 82 78 73
171 189 178 179 154 173 154 160 166 161 156 171 176 169 160 150 152 213 223 153 172 202 216 239 229 212 226 174 224 47 201 238 156 167 153 160 160 180 214 274 307 325 289 203 157 8 313 133 265 94 72 267 331 353 113 160 165 178 221 263 142 188 189 198 207 196 188 190 192 189 181 170 159 153 149 147 142 132 118 105 95 87 84 81 78
171 181 186 163 166 157 167 171 178 167 171 174 186 174 171 165 160 172 206 202 192 207 228 242 228 236 234 205 198 232 231 225 148 148 179 197 167 145 238 279 281 310 332 335 332 152 235 51 292 325 195 265 312 295 156 207 103 181 224 117 126 177 198 207 213 212 197 187 185 184 179 174 163 160 155 151 143 134 122 111 102 95 89 84 79
178 185 176 179 165 175 179 179 172 173 176 188 195 169 184 177 175 183 195 216 198 195 207 225 260 244 97 261 161 204 237 212 187 89 281 220 163 168 235 203 158 134 300 321 317 334 15 354 8 235 0 13 333 352 359 333 126 190 275 71 84 4 196 207 205 217 214 191 179 178 178 172 164 164 161 151 142 131 122 113 105 99 93 85 78
187 179 175 187 171 186 174 186 176 181 185 185 200 179 172 195 196 192 211 200 156 209 234 243 224 235 223 193 178 213 238 159 150 184 193 180 187 253 291 175 166 161 172 235 276 307 296 330 309 24 285 356 310 339 287 28 15 314 22 39 40 283 272 208 204 208 207 192 174 172 174 173 159 164 159 148 141 129 117 111 108 101 94 84 77
185 171 178 178 184 185 180 190 174 182 185 183 194 169 179 194 203 186 204 187 177 206 232 236 252 263 230 212 217 181 207 221 219 214 182 214 132 164 214 192 136 116 162 167 247 235 308 299 323 11 5 4 23 305 22 0 328 313 78 90 293 24 3 7 347 319 236 187 172 169 171 166 157 154 149 139 128 120 116 113 109 102 93 85 79
181 182 175 179 182 186 196 201 191 189 190 200 188 177 181 191 210 204 204 196 190 202 225 226 234 224 221 226 229 208 243 236 222 235 4 145 167 153 11 170 155 154 152 185 217 256 252 271 34 26 315 282 247 285 27 324 318 339 58 81 82 100 328 297 2 73 170 191 172 160 156 150 145 137 135 128 123 122 118 111 106 99 88 81 78
172 190 183 187 178 188 193 201 208 180 186 200 192 182 185 187 220 207 200 188 196 211 221 251 263 278 253 220 271 270 253 274 301 274 259 8 185 148 111 179 193 158 181 179 220 265 264 51 91 306 279 278 64 247 209 196 341 43 129 143 73 26 245 171 113 68 81 170 151 136 130 123 118 122 128 128 124 116 111 105 95 88 85 82 77
180 184 192 202 188 183 199 196 216 186 186 188 205 191 183 192 211 226 206 140 199 222 224 224 229 250 266 221 224 243 240 227 259 260 224 236 267 115 183 188 208 171 174 163 211 213 279 11 40 357 4 305 261 211 278 323 49 26 326 61 35 358 360 34 57 66 67 96 112 115 115 113 114 118 122 120 113 109 104 96 87 85 86 82 76
196 187 189 207 202 186 196 194 201 209 178 190 205 208 186 184 199 225 212 172 190 212 226 235 238 231 239 242 238 224 240 233 192 214 220 217 181 219 244 278 318 46 71 51 154 205 11 271 248 167 171 283 6 30 12 6 352 5 354 27 28 4 26 34 56 51 62 91 97 100 104 107 108 105 103 104 107 104 98 90 85 83 83 81 78
181 192 181 198 212 210 197 202 181 211 186 185 199 213 183 174 191 215 246 191 185 204 216 222 221 225 235 227 235 251 259 231 225 245 333 7 311 19 347 334 32 18 117 170 204 151 160 265 286 296 236 45 44 33 28 224 70 325 336 21 45 31 35 73 73 68 55 77 86 94 97 97 98 97 93 92 88 85 84 83 84 83 77 81 80
191 183 180 188 202 205 213 213 211 194 212 186 182 201 212 197 193 212 222 239 225 207 212 227 247 228 230 239 235 216 227 241 216 166 253 207 167 164 221 148 110 116 155 19 164 144 136 228 295 275 80 93 106 151 174 66 87 107 77 21 41 51 63 76 80 85 86 80 82 93 99 98 91 87 88 86 84 81 77 72 73 73 86 78 76
234 192 183 190 198 201 220 219 221 203 207 199 174 200 211 209 202 204 211 219 226 223 199 212 216 223 236 217 224 216 236 243 237 124 287 77 24 18 10 44 38 24 344 105 138 119 126 173 200 249 80 93 107 44 10 68 44 349 55 89 86 58 48 92 117 140 137 126 122 91 86 89 97 105 97 94 95 97 93 87 93 99 84 81 78
216 212 198 198 200 211 212 223 224 216 200 211 190 194 223 228 223 205 207 209 219 222 228 227 229 220 222 246 239 231 237 268 249 162 124 106 57 200 104 131 121 115 233 187 176 175 192 210 194 94 84 129 122 104 92 133 155 164 119 249 83 82 54 48 66 32 111 117 122 117 104 108 115 110 110 105 102 102 115 126 125 105 86 81 77
220 216 210 205 207 215 210 215 226 224 205 203 208 213 213 227 228 201 213 228 221 223 218 218 213 206 216 234 334 355 306 165 131 101 143 131 184 197 183 158 122 199 227 205 211 94 24 340 55 64 84 140 90 109 159 79 98 92 115 164 102 97 77 55 52 54 53 118 126 105 94 94 91 91 89 92 99 105 104 102 102 95 91 85 81
216 219 218 214 205 212 213 212 218 223 214 208 215 215 216 210 229 216 208 211 212 210 196 212 207 210 221 205 166 132 287 328 286 195 162 182 175 224 160 166 169 165 220 237 94 97 89 285 329 119 156 88 116 59 33 80 84 182 308 274 111 108 128 150 122 49 36 22 135 122 113 120 121 123 123 112 102 102 101 121 105 100 100 98 86
202 213 219 213 209 216 222 215 211 224 229 220 206 214 214 213 215 228 219 215 195 188 182 205 199 195 228 219 111 151 131 149 183 269 201 175 219 347 34 23 152 173 220 248 124 137 141 205 260 67 26 78 37 49 32 102 143 177 164 65 55 45 84 103 97 31 66 22 63 99 118 120 142 143 134 107 122 120 99 75 79 95 90 84 80
200 192 224 231 205 209 224 232 221 219 221 222 200 201 212 225 228 226 225 68 167 212 191 169 200 206 183 176 158 127 136 148 260 260 237 196 160 140 116 79 42 329 260 202 135 145 115 20 2 317 113 112 64 44 19 41 3 28 44 63 50 299 151 113 109 121 58 181 117 88 70 132 83 63 57 57 65 71 72 67 75 80 79 75 74
210 184 199 235 237 191 191 227 236 237 226 248 180 188 194 209 223 215 191 203 206 205 208 198 189 211 178 168 129 149 161 166 178 246 240 199 134 137 123 93 101 76 67 42 89 150 140 177 288 33 39 54 70 56 82 73 304 258 112 112 103 103 82 100 116 96 294 301 114 97 85 79 84 82 73 68 75 70 67 64 69 73 79 79 80
180 181 196 221 243 240 209 199 220 232 255 218 196 189 189 183 185 198 210 204 208 220 207 209 216 185 123 130 145 152 195 202 198 212 174 205 164 121 104 110 93 105 102 74 48 56 106 112 20 82 65 41 82 36 25 347 297 34 88 93 105 84 85 80 70 87 51 315 119 105 99 88 85 90 80 53 47 62 64 52 63 72 71 72 70
217 178 195 208 220 234 237 215 202 209 217 228 199 184 179 183 187 194 216 208 209 209 205 201 200 149 158 211 163 167 181 190 178 164 148 173 171 174 146 86 89 75 68 63 46 64 66 67 76 91 55 42 85 20 5 344 14 76 102 111 115 100 91 89 86 74 31 23 130 116 93 84 84 89 90 84 73 72 65 50 60 66 67 74 76
221 207 197 207 207 225 238 248 242 220 212 176 186 188 189 190 194 196 212 224 235 240 219 190 181 172 183 189 180 148 160 149 162 173 160 177 175 155 121 100 76 59 34 30 28 63 72 78 85 85 70 45 39 40 354 339 355 72 78 101 101 111 110 117 103 75 57 40 66 91 98 120 118 98 106 113 86 68 70 48 54 81 95 99 104
247 208 203 204 208 216 222 230 243 246 222 169 181 186 187 192 190 198 210 216 231 245 249 221 208 183 185 186 167 201 152 152 167 187 196 172 159 167 142 102 91 70 53 23 58 75 83 92 93 99 92 67 59 40 349 350 354 65 113 96 103 121 119 101 88 74 69 47 74 95 116 116 104 93 95 104 112 109 111 114 203 186 166 166 170
295 273 217 206 207 214 218 219 229 236 240 188 182 189 186 187 179 199 206 211 221 229 244 249 236 219 104 89 74 85 278 161 169 189 212 169 165 173 139 123 115 98 89 73 74 93 103 104 109 112 120 115 97 77 46 34 12 308 151 126 119 137 122 121 101 86 64 41 8 30 90 88 81 95 91 94 133 147 162 171 187 197 208 213 210
193 241 263 228 208 215 217 224 221 228 236 198 200 193 189 182 187 192 203 210 220 224 228 236 74 70 82 93 114 92 210 196 177 177 191 180 165 166 149 134 130 122 134 144 122 91 102 110 117 129 123 115 78 53 46 43 35 22 119 123 134 126 105 114 117 103 84 45 16 355 89 90 104 110 125 111 127 150 159 172 179 193 207 231 238
204 217 258 265 229 212 217 219 228 230 235 157 193 192 198 196 196 202 194 206 223 230 221 94 78 82 56 22 359 198 178 132 146 179 194 208 188 172 164 139 135 140 152 144 125 122 124 120 118 125 139 114 73 58 53 46 40 38 23 63 124 128 127 114 121 123 90 45 359 333 98 123 128 148 176 169 164 339 184 176 182 177 200 210 228